Location: Newark
(52.9300°N, 3.3400°W)
Time: 12:16:30
(UTC+00:00)

ISS - Pass Details

Date: 08 March 2021
Orbit: 418 x 422 km, 51.6° (Epoch: 17 April)

Event Time Altitude Azimuth Distance (km) Brightness Sun altitude
Exits shadow 04:42:51 49° 184° (S) 549 -3.4 -18.9°
Drops below altitude 10° 04:45:56 10° 121° (ESE) 1,497 -0.4 -18.5°
Sets 04:48:03 0° 116° (ESE) 2,360 0.8 -18.1°
